GFSSE_sfc_rhum_096.txt.gz
RH
95 91 80 77 78 76 78 75 76 78 79 79 79 78 78 79 79 77 77 75 76 76 73 68 69 68 68 73 75 75 73 71 74 73 74 75 76 76 74 75 76 67 75
92 87 80 78 78 79 78 78 75 78 78 78 78 77 77 77 78 76 77 76 74 74 70 68 72 73 74 74 74 74 72 72 72 74 72 69 71 74 74 74 76 68 72
86 84 82 80 77 76 75 76 78 75 78 78 77 76 76 76 76 76 75 73 72 72 68 66 68 69 67 69 71 73 72 71 71 73 75 72 66 69 72 73 73 74 76
87 90 86 83 76 74 74 73 76 76 73 76 76 74 74 76 74 77 73 73 72 71 71 71 70 70 70 69 68 68 70 70 73 78 77 75 66 70 76 75 76 76 76
96 94 83 76 74 72 73 74 72 75 75 75 79 76 75 75 75 75 74 74 74 73 72 72 70 69 69 69 70 72 70 70 75 78 81 83 78 69 69 71 71 73 72
97 91 79 75 75 76 76 76 74 73 77 75 75 76 75 75 74 73 73 75 72 72 72 70 69 65 66 66 68 68 72 74 80 82 81 76 76 74 73 69 69 70 75
97 93 83 78 76 77 76 74 75 73 74 75 74 76 75 73 72 74 73 70 69 70 70 68 67 66 68 70 72 74 72 76 85 84 83 80 78 71 73 70 70 70 73
97 92 88 79 76 74 73 76 75 75 75 75 75 74 74 75 75 72 72 71 69 68 69 65 67 67 67 67 70 70 69 73 78 84 83 80 80 74 67 69 70 71 70
94 93 91 87 79 74 77 76 75 75 73 74 74 75 75 75 72 73 72 70 69 68 68 68 69 69 69 69 69 68 71 78 85 82 74 80 81 74 70 71 72 76 77
96 94 95 91 90 90 86 76 74 74 73 75 74 73 74 73 71 71 77 73 69 68 69 70 70 70 70 71 71 72 69 73 74 76 81 80 83 76 69 69 70 72 72
94 98 97 96 95 93 87 81 78 70 73 74 77 80 87 94 89 83 75 70 68 67 67 68 67 67 70 70 70 72 76 78 78 80 80 83 77 65 66 67 68 69 70
100 99 98 96 95 92 80 94 94 88 91 94 92 92 95 93 87 86 77 72 71 72 66 64 63 64 73 72 73 74 74 78 80 82 82 84 76 66 67 69 68 69 69
98 96 98 97 96 93 94 97 98 92 92 92 91 91 89 89 92 96 96 88 86 80 90 82 78 84 79 84 83 75 76 76 80 81 78 82 78 68 71 74 74 73 72
96 95 96 96 97 93 95 93 93 90 90 89 89 88 90 90 92 93 95 92 92 87 91 90 87 87 84 82 80 78 74 75 79 78 79 78 78 70 68 67 70 70 71
94 93 94 95 95 92 94 93 91 91 90 88 87 86 88 92 92 93 93 90 91 92 91 88 89 81 88 68 72 80 74 74 76 77 80 79 78 79 70 68 68 70 71
90 90 90 92 92 91 93 91 90 90 89 87 88 86 86 90 92 90 91 89 93 90 92 90 88 85 80 67 74 72 71 71 73 75 75 80 83 80 79 74 71 71 71
86 86 89 89 87 90 91 89 88 88 78 86 90 85 85 88 88 89 92 93 94 96 91 92 88 79 74 66 68 65 66 68 68 71 72 73 74 82 78 76 76 77 77
83 87 86 71 82 87 90 89 87 85 84 86 92 92 84 87 85 88 88 91 86 93 86 90 84 81 77 74 71 69 68 67 68 68 68 68 72 66 74 77 78 80 78
83 85 86 82 83 86 88 88 87 84 85 87 87 94 86 84 85 88 85 87 91 91 87 83 85 79 76 73 65 70 71 71 68 56 66 68 68 70 70 76 79 80 74
81 82 83 84 86 89 90 91 93 89 90 87 90 88 85 89 84 92 89 88 92 85 82 90 84 81 80 81 64 64 71 70 72 68 65 61 68 70 68 75 74 70 79
78 82 85 86 90 91 91 93 92 90 90 89 89 87 86 89 88 88 93 90 90 90 88 82 80 85 79 81 78 73 69 66 63 69 66 64 65 63 65 70 72 70 68
77 81 86 87 92 89 87 91 87 92 89 89 93 88 88 88 88 90 92 88 84 88 89 89 85 81 79 83 80 79 78 67 66 62 65 63 64 63 62 62 67 73 74
75 82 84 87 91 88 87 90 94 91 90 95 92 90 87 84 85 89 91 90 90 90 88 88 88 84 81 82 83 78 76 74 77 66 65 63 69 66 65 64 61 65 70
70 74 83 86 90 87 89 88 87 88 91 93 95 95 92 85 82 84 85 89 89 88 88 85 83 83 85 86 81 76 79 75 77 74 66 64 64 56 60 61 60 59 64
66 72 80 87 89 90 90 89 87 92 91 93 95 92 92 92 88 83 88 89 90 86 86 83 87 88 94 90 84 82 81 76 81 77 73 73 69 59 59 61 59 59 62
61 71 80 87 90 90 90 90 90 88 91 94 92 94 94 95 93 86 87 90 90 88 83 85 89 86 87 86 86 84 81 82 78 80 79 76 75 69 66 72 67 66 66

GFSSE_sfc_rhum_102.txt.gz
RH
47 47 68 68 72 75 76 76 77 79 78 79 78 77 76 76 76 76 77 71 73 75 74 72 73 72 73 71 72 74 74 74 74 74 74 74 74 74 72 68 67 49 74
39 46 73 73 73 74 74 74 74 76 77 77 77 77 76 76 75 75 75 70 72 72 72 74 74 74 73 72 71 72 74 72 67 68 72 73 74 74 71 72 70 61 75
37 43 58 76 76 78 76 73 75 75 76 76 76 76 76 75 75 74 71 71 72 71 70 70 72 73 71 67 67 73 74 74 69 58 51 40 54 74 74 74 74 73 72
34 38 44 81 76 74 76 74 74 74 75 74 75 75 75 73 73 72 69 69 71 72 72 69 70 68 70 70 70 71 74 74 69 61 43 34 42 73 74 74 74 74 76
37 45 56 75 73 70 74 76 74 73 74 74 74 76 74 74 72 72 72 72 72 72 71 71 70 70 72 71 70 70 74 72 62 50 43 52 41 61 70 68 70 74 77
38 38 62 71 71 72 70 74 75 73 72 73 74 75 73 74 72 72 73 72 70 71 67 68 68 68 68 70 71 73 75 64 54 42 42 57 55 68 69 70 75 74 75
30 34 44 75 75 75 72 72 73 73 74 75 73 71 72 71 72 72 73 71 70 68 68 68 69 71 73 74 71 71 71 64 44 45 41 44 53 72 68 69 69 71 71
29 34 46 72 74 74 73 72 73 73 73 73 73 72 71 73 70 69 70 70 67 68 68 68 69 68 69 68 67 69 72 62 42 46 44 47 72 71 70 76 77 77 74
30 36 41 48 66 73 71 75 74 74 73 75 72 74 73 71 70 69 70 69 66 67 67 68 69 70 69 70 70 72 73 70 39 42 35 45 78 68 69 70 70 70 70
34 35 41 46 44 47 48 73 73 73 72 73 71 71 71 70 71 69 76 72 66 66 67 67 68 70 70 72 70 70 66 64 33 34 36 55 76 67 67 67 67 68 69
38 42 42 39 51 52 51 61 68 72 73 76 70 72 69 42 41 48 69 69 67 66 65 64 65 69 68 71 72 70 70 30 27 31 33 79 70 67 68 67 66 67 68
41 38 38 41 44 44 39 54 54 47 45 47 52 49 39 43 48 46 61 72 71 66 68 66 68 66 61 34 42 64 32 37 33 32 42 80 76 67 70 72 70 70 70
39 39 38 45 46 41 49 42 41 42 45 51 54 45 46 43 42 38 43 41 41 59 36 42 42 36 44 39 36 36 39 36 31 30 54 79 74 68 66 66 67 69 69
43 41 38 42 49 46 43 37 39 41 41 40 45 54 52 43 45 45 40 43 44 37 46 43 38 46 44 44 38 39 37 33 30 29 48 71 74 70 66 66 66 67 68
40 40 41 48 56 61 51 40 40 44 38 40 42 48 43 42 50 45 49 43 44 39 38 42 43 41 42 37 36 38 35 38 34 28 30 68 75 74 72 70 68 69 70
40 41 43 48 56 54 55 56 49 42 43 39 39 46 53 43 51 45 47 43 43 39 39 41 47 37 35 32 39 37 36 34 40 36 31 45 70 76 74 73 72 71 71
38 42 48 49 51 56 58 54 44 42 37 38 40 52 53 49 58 54 47 43 43 50 53 46 42 38 32 30 40 36 33 36 32 38 31 30 45 72 68 70 70 71 73
38 47 48 38 45 49 52 52 43 41 38 38 41 45 52 56 57 53 43 42 45 44 39 38 35 33 34 32 36 33 33 32 37 38 33 33 34 29 64 69 70 74 74
43 48 48 46 45 51 59 49 46 55 42 42 41 42 57 54 54 48 43 47 50 40 39 34 35 37 34 32 28 30 31 31 34 26 36 36 36 32 31 70 73 76 73
44 48 49 45 54 56 54 55 44 45 44 43 42 42 54 50 53 51 46 52 46 39 39 40 53 40 35 34 25 28 28 29 31 30 30 27 32 33 28 39 37 42 74
43 49 52 53 62 55 50 46 46 43 46 44 43 55 58 53 54 56 45 50 46 45 54 50 41 47 33 37 32 29 29 29 28 28 26 26 30 27 30 32 33 34 34
44 49 56 60 69 60 52 53 45 44 41 42 45 53 52 54 54 52 57 49 52 45 57 58 57 37 36 43 34 33 31 28 25 23 25 25 28 25 28 31 33 38 38
43 50 55 60 65 62 58 60 58 56 55 49 51 48 50 53 52 55 56 52 56 47 43 53 51 58 37 43 52 39 33 34 29 25 29 25 31 27 28 30 30 34 39
41 44 52 58 62 63 66 57 68 55 58 44 48 45 48 52 51 52 56 56 59 46 57 51 46 51 54 42 39 41 52 55 34 30 25 27 26 24 30 26 25 29 36
39 42 47 59 63 59 67 63 68 54 44 44 44 58 58 58 55 50 55 60 64 47 58 58 57 58 45 41 39 40 50 39 46 33 30 29 25 25 28 28 27 27 33
37 41 44 60 68 64 66 67 65 61 54 47 50 49 49 50 49 53 51 58 63 56 59 52 58 54 64 53 42 42 38 38 38 35 33 37 33 32 29 31 33 30 31

GFSSE_sfc_rhum_105.txt.gz
RH
44 50 71 70 68 73 74 76 80 79 78 78 78 76 77 77 76 75 75 74 75 74 73 73 74 72 73 74 75 74 74 74 74 75 75 75 76 74 72 68 67 51 75
32 44 72 73 72 75 74 74 77 77 78 77 77 76 74 75 74 73 74 71 72 75 74 74 74 74 72 71 74 73 68 66 72 74 74 72 73 74 74 72 72 65 74
33 42 56 75 76 73 72 74 75 76 76 76 76 76 75 74 72 71 73 73 72 71 73 74 73 66 66 70 73 72 73 72 66 58 65 47 59 74 74 73 72 73 74
30 33 46 80 76 76 74 74 73 74 74 75 76 74 74 72 72 71 68 72 72 71 70 68 70 70 70 69 71 72 72 68 65 64 36 35 47 72 72 74 74 75 74
40 39 57 74 71 74 74 72 73 73 73 74 74 73 74 73 73 71 72 71 71 70 69 70 72 72 70 69 70 72 72 68 61 50 46 45 46 64 75 71 72 75 76
39 45 64 70 69 68 74 74 73 72 73 74 73 74 73 73 72 72 71 70 71 69 70 69 69 70 71 70 71 71 65 59 54 39 52 52 54 67 71 71 70 72 74
34 32 45 75 75 72 72 73 72 74 74 73 72 73 72 72 72 72 71 69 69 68 69 69 70 71 71 68 68 69 66 59 56 44 42 47 57 71 72 72 75 73 72
25 33 46 72 74 74 71 73 74 73 72 74 71 72 72 71 72 71 70 68 68 69 69 69 69 69 67 67 70 69 68 68 38 44 46 48 73 72 72 74 74 75 72
41 35 41 45 65 72 74 73 73 73 71 73 72 72 71 71 69 70 68 68 68 67 67 68 69 70 71 70 69 66 63 60 38 57 39 47 74 67 67 67 67 67 67
37 45 44 44 43 49 49 72 73 73 72 71 71 71 71 71 69 71 74 68 67 66 66 66 68 70 72 71 70 68 64 63 29 31 40 53 73 65 64 64 65 66 68
42 37 44 39 60 64 51 61 69 72 75 73 68 70 73 46 44 52 70 67 65 65 64 63 64 68 71 73 72 70 69 29 26 28 36 76 70 67 66 65 66 68 69
50 42 40 36 40 52 40 59 51 50 57 53 54 52 58 44 42 41 58 66 63 63 63 64 66 67 69 54 48 68 32 30 28 30 43 78 68 65 67 69 69 69 68
36 34 42 52 61 42 44 35 35 50 43 49 45 40 42 40 42 37 47 45 44 61 57 51 50 50 34 35 27 26 30 28 26 28 60 76 69 65 64 64 65 66 68
33 33 30 33 52 40 34 32 34 51 55 35 39 46 50 52 58 62 37 37 59 34 40 44 34 40 39 36 29 29 28 26 24 25 50 69 69 66 64 64 65 66 68
30 31 33 39 67 54 42 33 38 39 60 37 47 60 62 60 48 63 60 59 43 48 32 35 35 35 39 33 31 32 30 31 26 22 30 67 67 68 68 67 68 68 69
31 33 36 54 57 53 45 46 41 58 42 40 43 40 48 57 66 40 52 42 54 43 34 38 41 32 31 30 34 32 31 30 34 29 29 46 67 67 69 70 69 69 70
31 35 41 45 44 46 48 45 60 35 46 52 46 47 47 51 52 51 40 63 56 44 48 41 37 34 27 28 35 32 30 30 32 35 28 33 50 72 68 68 67 68 69
34 41 39 34 38 42 45 46 47 41 39 54 36 42 47 52 49 57 62 36 37 42 37 33 32 27 28 28 31 29 29 29 34 35 32 31 31 33 66 71 67 70 72
38 42 39 51 40 45 50 62 52 47 58 38 38 62 50 49 50 67 67 45 60 40 34 45 28 40 30 28 28 28 28 28 32 26 35 33 33 29 30 75 76 77 71
39 42 41 38 47 58 58 61 55 63 64 38 63 61 51 47 48 52 49 46 59 42 36 36 54 35 34 31 26 26 27 27 28 29 30 25 31 32 27 38 41 47 78
38 42 44 46 55 48 44 45 67 70 69 68 65 49 50 49 51 54 66 47 48 54 53 46 42 46 30 32 33 27 28 28 28 27 24 23 28 24 27 32 32 34 40
38 43 47 52 57 56 42 74 69 64 50 62 62 49 52 49 53 49 59 55 72 45 52 54 55 42 30 31 36 31 31 28 24 22 24 23 25 23 27 31 31 39 37
38 43 48 53 60 58 64 74 54 49 57 40 44 45 47 48 48 52 53 66 51 65 59 57 47 53 36 34 47 57 38 52 28 24 29 24 30 26 26 28 28 33 37
36 38 48 55 60 58 59 71 80 55 47 72 52 63 46 48 47 49 52 52 57 55 60 58 48 58 59 35 31 32 48 48 53 33 24 26 25 25 28 26 23 29 33
34 36 42 54 61 57 63 76 56 63 81 90 69 62 61 59 52 48 52 54 56 50 55 58 53 61 45 47 38 32 44 32 37 34 54 29 24 23 26 26 26 25 31
32 36 39 55 64 60 63 61 64 70 79 80 62 59 48 45 46 50 49 54 57 62 54 51 56 56 62 60 46 44 33 56 59 51 35 38 38 31 26 29 30 28 28

GFSSE_sfc_rhum_111.txt.gz
RH
74 77 78 73 72 74 78 79 80 78 79 78 78 78 74 78 79 80 79 77 76 77 76 74 74 74 72 74 74 73 73 74 76 75 75 74 72 72 74 72 72 67 74
68 72 79 75 76 77 78 78 79 78 77 78 78 79 75 77 77 76 76 76 76 75 75 73 74 74 70 69 73 72 70 74 77 73 71 70 73 74 75 72 76 72 74
69 72 71 80 77 77 78 78 78 78 77 78 79 79 75 75 75 75 75 74 74 72 65 68 72 72 71 72 71 70 69 70 71 70 73 74 72 71 71 74 74 75 76
69 74 79 81 79 77 78 77 76 77 76 76 77 79 75 75 75 74 71 70 71 73 72 70 68 69 70 71 72 70 69 71 70 67 62 66 64 74 75 73 73 75 76
65 77 79 82 79 77 76 75 76 77 75 76 76 76 76 73 71 70 71 72 74 72 72 71 68 70 69 70 69 69 73 71 69 63 72 80 82 74 74 76 76 76 75
72 79 79 78 74 74 75 75 75 75 75 76 76 75 73 73 72 72 72 71 72 72 72 72 68 67 67 66 67 71 71 69 63 65 74 79 78 70 69 70 71 72 73
76 73 72 79 77 76 75 75 75 74 75 76 76 75 74 72 71 71 70 71 72 71 70 72 67 66 65 64 68 69 70 63 61 68 76 82 84 78 75 71 71 69 71
66 75 70 76 76 77 75 75 75 75 76 76 76 75 74 73 72 74 70 69 69 69 69 68 66 65 65 64 63 63 69 64 57 68 76 84 81 74 72 70 71 68 70
64 72 78 77 72 75 77 73 74 76 75 74 76 75 74 72 71 71 70 69 69 69 69 68 68 67 66 62 61 61 65 66 64 69 65 82 78 68 66 66 67 68 69
62 69 73 77 81 83 80 74 73 74 74 75 74 74 76 72 70 71 77 74 68 68 68 69 69 69 68 66 65 66 64 66 62 67 78 82 76 64 64 65 66 68 69
59 65 76 69 82 84 84 73 74 72 73 74 76 73 81 91 75 71 74 72 68 67 67 68 69 70 72 72 72 69 63 76 56 70 82 80 77 66 65 66 68 69 69
81 69 80 68 73 76 60 84 86 78 84 90 83 85 92 84 90 70 74 70 66 65 65 67 76 80 71 77 78 75 83 54 60 74 86 80 76 68 67 68 68 68 68
61 57 66 66 65 68 71 84 84 85 83 82 73 84 92 89 78 81 84 94 80 74 62 68 70 89 87 81 80 77 80 53 63 68 82 81 75 67 65 65 66 68 69
53 58 62 65 65 71 70 79 80 82 80 80 84 88 93 94 89 86 97 98 96 90 85 90 82 69 76 75 72 64 56 49 64 80 90 80 77 68 65 66 68 69 71
49 51 61 60 64 63 62 82 74 77 69 79 95 90 91 94 94 93 95 96 82 92 84 79 76 64 66 58 48 43 45 44 55 70 88 74 78 74 68 67 69 71 72
56 56 67 67 67 67 73 61 70 76 75 79 81 82 84 86 96 96 87 94 94 96 84 77 65 69 65 51 57 45 47 43 47 59 73 81 79 78 75 71 72 74 73
63 65 68 65 62 67 72 68 67 68 68 92 78 65 70 75 74 87 84 84 80 82 67 68 67 69 74 72 56 55 49 48 46 53 62 74 80 78 78 78 80 81 79
62 66 55 48 61 62 71 70 70 70 74 77 80 78 68 72 80 79 85 80 78 80 90 77 69 67 74 70 64 57 57 54 49 54 59 63 70 60 78 80 81 80 80
64 70 57 62 62 66 67 73 66 65 71 71 76 78 72 67 69 80 88 91 88 87 87 78 72 65 62 61 61 63 62 63 51 46 54 57 63 64 69 76 82 80 78
63 60 65 67 62 73 74 78 76 77 73 76 74 72 71 73 66 80 85 78 82 93 79 78 78 72 64 63 46 46 60 62 60 62 53 50 57 58 61 62 75 79 83
59 58 63 66 76 73 69 77 76 77 77 82 72 68 67 70 67 75 86 61 70 90 87 78 76 74 74 71 68 66 58 55 59 60 56 56 58 56 57 63 73 73 73
60 60 74 77 78 70 72 82 79 78 85 84 80 74 68 71 68 79 88 82 76 93 84 77 81 85 80 68 80 85 65 88 56 52 58 51 52 50 50 49 57 60 67
61 67 74 71 73 82 78 83 85 82 85 85 74 80 69 71 69 74 83 92 87 86 90 87 84 85 93 81 71 73 82 77 82 63 64 55 77 81 82 88 82 90 86
58 62 69 77 77 81 80 83 81 90 88 91 92 85 75 72 70 69 70 79 82 89 85 90 73 86 90 90 81 61 89 86 94 90 71 69 72 90 94 94 92 89 92
54 61 68 76 83 84 84 85 89 94 94 94 94 89 94 83 68 67 71 71 85 87 88 82 86 86 87 93 91 88 91 95 95 94 96 94 91 96 96 94 92 96 91
50 58 69 76 84 89 83 85 85 90 87 93 94 97 98 96 84 70 72 82 82 83 84 82 86 79 86 87 94 92 89 96 98 97 98 88 95 96 97 95 92 95 94

GFSSE_sfc_rhum_114.txt.gz
RH
80 78 76 72 72 75 78 79 79 79 78 77 76 77 76 75 74 76 76 76 76 77 74 74 74 72 69 73 73 74 79 79 76 74 73 73 74 74 73 72 72 68 74
71 85 79 75 75 76 78 79 78 79 78 76 75 76 76 75 77 76 76 75 75 75 74 74 71 72 73 72 71 71 74 76 76 72 73 73 73 74 74 73 75 72 74
76 81 75 81 77 78 78 78 78 78 77 77 75 74 74 76 76 76 74 74 70 68 72 72 70 72 72 70 70 70 72 73 73 72 73 77 75 74 74 74 75 75 75
76 81 81 83 80 78 78 78 78 76 77 76 76 77 76 75 74 73 72 69 71 71 68 70 71 71 71 70 70 69 70 69 71 70 75 73 70 73 72 74 76 75 76
82 91 80 80 80 76 77 77 77 76 76 76 75 75 73 73 74 73 72 73 71 69 67 68 70 70 71 69 71 74 76 73 71 74 82 87 87 73 76 76 75 74 75
86 91 79 77 76 75 76 76 76 76 77 75 75 73 72 71 70 70 71 72 71 71 71 67 68 68 67 68 71 70 70 68 72 77 84 81 83 73 73 73 72 74 76
91 88 82 79 76 75 76 76 75 76 77 76 76 74 73 73 72 72 71 71 71 71 71 65 65 64 65 68 68 72 67 65 75 83 88 89 88 77 72 71 70 72 72
81 82 79 78 76 76 75 75 76 76 77 77 75 74 72 71 71 70 69 69 68 68 67 64 64 62 63 64 65 74 69 64 68 82 84 88 84 77 66 71 70 69 70
78 82 85 82 74 76 75 76 76 78 77 76 75 74 74 72 71 70 69 68 67 66 65 65 64 62 62 62 61 67 73 66 78 86 75 88 78 68 66 67 68 69 70
81 84 90 88 88 88 82 75 76 74 75 75 75 74 72 72 70 70 77 73 67 65 65 66 68 70 71 68 63 63 69 64 72 75 83 86 77 65 64 66 67 69 70
79 84 91 91 94 92 86 75 76 74 74 75 77 75 81 92 80 79 74 69 66 65 65 67 70 71 69 69 70 69 64 74 72 82 88 82 77 64 65 67 69 71 71
87 87 93 87 92 91 70 88 88 85 94 93 92 92 95 93 91 78 75 67 66 64 65 68 71 72 78 84 84 75 86 81 70 83 90 83 76 68 68 69 71 71 71
75 79 81 84 88 84 86 95 94 90 91 78 80 92 91 94 91 89 90 94 92 78 78 72 75 81 80 84 85 85 82 63 76 81 83 83 76 68 64 66 68 69 72
77 73 71 76 81 80 86 90 89 91 92 89 84 89 95 90 89 90 97 92 92 96 80 85 87 73 74 76 79 77 72 60 75 82 89 81 78 70 66 66 68 70 72
62 67 70 72 76 79 82 95 90 88 88 88 94 93 91 82 91 88 95 95 94 88 91 82 83 76 79 78 74 67 62 53 67 80 92 74 79 73 68 66 68 71 74
61 64 68 69 69 66 75 83 87 92 86 92 95 94 87 93 93 97 94 92 94 96 90 86 82 76 71 62 59 51 46 51 58 67 78 83 78 78 75 70 72 75 74
57 68 72 71 73 77 72 75 81 82 82 87 73 83 82 88 91 94 94 92 96 95 90 78 78 72 79 76 61 56 52 48 52 56 62 72 78 78 78 78 80 82 81
63 67 69 54 68 73 74 75 75 83 86 88 65 78 68 84 92 94 95 96 92 96 93 84 76 76 79 82 75 67 62 58 50 55 60 63 69 64 71 79 83 83 81
63 70 66 67 66 71 76 79 75 79 84 85 81 90 77 79 84 84 94 89 93 90 92 84 73 76 71 79 70 74 82 70 59 50 58 59 62 66 66 71 80 84 78
66 66 67 69 67 73 79 84 81 84 72 83 83 90 78 77 74 88 90 83 83 91 95 88 83 77 72 70 58 55 75 72 64 63 60 55 63 66 77 83 89 88 83
66 70 72 70 75 82 79 88 82 83 86 86 82 74 78 72 74 79 88 60 90 94 94 90 84 80 75 79 70 76 67 63 61 65 62 64 80 85 88 90 96 92 91
66 70 76 73 82 74 77 85 80 86 85 84 83 77 77 76 77 84 87 85 86 90 89 90 89 86 87 81 86 83 68 85 85 64 85 78 94 82 86 80 84 86 86
66 74 73 80 74 80 83 88 87 89 91 91 92 85 72 76 74 85 87 87 88 87 89 91 87 90 90 87 82 80 86 87 88 84 83 90 94 96 94 91 80 79 86
62 68 71 80 81 86 87 87 83 91 91 94 93 91 83 78 74 73 82 87 88 93 88 92 83 92 90 93 87 92 95 92 90 85 82 86 93 88 94 94 89 74 77
61 64 72 82 86 87 85 88 91 92 95 95 93 87 88 92 77 73 75 84 88 89 88 86 87 90 91 95 95 92 95 97 95 91 85 89 92 92 93 97 94 92 90
61 62 72 84 90 88 84 90 89 90 94 94 94 94 95 95 93 88 86 86 86 86 85 87 88 85 91 92 95 91 92 93 91 92 90 89 89 91 93 94 91 94 90

GFSSE_sfc_rhum_117.txt.gz
RH
77 75 75 74 76 76 79 80 79 77 76 78 75 72 72 76 75 76 75 76 76 75 74 72 72 73 71 73 75 76 75 75 74 74 75 75 74 72 72 73 75 73 72
69 81 75 74 75 78 78 79 79 78 75 77 76 74 72 75 76 77 76 76 74 74 73 72 74 73 71 71 74 76 76 78 74 71 73 73 73 73 73 74 75 71 72
74 85 79 80 78 78 79 79 78 76 73 75 74 73 76 75 75 74 74 75 73 71 70 72 72 72 72 72 73 71 73 73 73 73 75 80 80 74 74 72 74 75 74
79 87 86 84 79 78 79 78 77 76 73 75 74 75 75 75 74 75 69 66 67 71 69 71 71 70 70 70 69 70 72 72 72 75 80 79 69 73 73 76 76 75 75
86 92 89 79 78 77 78 78 76 75 74 76 75 75 74 71 69 68 74 73 70 68 69 70 71 70 69 71 70 70 70 70 74 78 87 90 87 71 73 72 73 74 78
94 93 80 76 75 75 77 77 76 77 76 76 74 72 71 71 72 71 72 71 72 69 67 68 70 68 68 74 69 72 71 73 78 85 85 83 86 75 74 73 73 76 78
96 93 82 79 75 76 75 76 76 76 75 74 74 73 72 71 70 70 70 70 71 71 65 65 66 66 68 70 69 68 68 70 82 86 89 91 88 73 70 70 71 71 71
93 91 85 76 75 75 75 75 76 76 76 76 74 73 73 72 72 72 70 68 68 69 64 64 63 64 66 66 72 69 66 65 77 88 89 92 86 74 67 71 68 68 70
86 90 92 85 78 75 75 76 76 76 77 75 74 74 73 72 70 69 69 68 67 66 65 65 64 65 66 65 66 68 65 69 87 89 78 88 78 68 65 66 67 69 70
91 92 94 92 90 88 85 75 75 76 76 75 74 72 72 70 69 70 76 71 67 67 67 67 68 69 71 69 66 66 65 67 79 80 86 89 78 63 63 65 67 69 71
90 95 95 96 97 95 91 80 75 74 74 74 74 74 81 93 86 82 74 69 68 68 69 69 70 71 67 69 69 68 68 77 75 83 90 82 74 62 63 66 69 72 73
96 95 96 96 96 94 76 92 93 89 95 94 93 94 97 94 92 80 78 74 74 71 75 74 75 74 75 88 87 80 84 83 74 84 90 82 74 66 65 68 71 72 72
89 89 95 96 96 94 95 97 97 95 94 88 89 94 94 94 90 92 92 93 89 82 84 62 72 77 79 80 84 87 85 75 77 84 82 83 77 70 66 67 69 70 72
88 88 88 91 94 91 96 98 97 94 87 92 90 90 96 90 86 90 96 95 93 96 92 82 85 78 77 74 78 80 78 68 78 81 90 80 78 73 68 67 68 70 72
83 84 84 85 88 85 93 98 97 96 92 91 93 94 91 85 83 85 94 95 94 90 90 88 85 83 83 76 77 78 76 61 72 82 93 78 79 74 68 67 68 70 74
74 78 79 79 80 85 92 94 97 95 94 96 96 94 89 91 91 93 92 85 92 95 94 91 90 82 76 73 64 56 64 60 64 72 81 84 78 77 71 70 71 73 74
70 73 75 75 74 79 90 87 91 92 86 93 90 88 85 91 91 92 92 92 95 96 93 90 86 82 84 77 66 61 54 54 57 58 63 71 76 74 76 77 81 83 81
72 76 74 60 77 81 77 84 88 85 90 90 76 87 74 88 89 92 94 95 95 96 95 90 82 78 83 82 71 72 65 57 53 53 55 60 64 65 74 72 77 80 78
72 76 73 75 76 77 78 81 83 85 90 82 74 89 80 88 88 94 96 94 91 92 95 93 82 79 73 76 69 72 81 76 62 60 62 68 64 73 84 74 81 81 74
72 74 72 74 76 79 85 85 88 89 87 87 88 90 83 86 88 94 94 86 88 95 95 89 88 87 74 72 62 58 76 74 73 72 70 69 78 84 88 90 94 92 84
70 73 74 74 79 86 88 94 90 86 91 88 82 84 83 83 81 85 83 73 92 94 93 92 90 87 85 88 75 76 74 72 73 86 85 85 88 87 83 86 95 93 90
69 70 78 73 85 83 80 90 84 87 90 88 85 82 84 81 82 85 89 89 89 87 90 89 92 88 90 93 91 82 83 84 83 82 92 82 90 82 80 76 80 82 77
67 75 77 77 83 81 85 92 92 93 94 92 94 93 85 84 80 87 86 90 90 89 92 93 91 90 94 88 93 85 88 86 91 90 84 92 92 92 91 88 78 76 81
64 70 78 83 81 86 90 89 86 92 91 92 93 92 89 87 83 83 83 89 90 94 91 94 85 92 92 92 90 94 96 92 92 92 87 89 91 88 91 93 90 82 84
62 68 75 85 90 91 92 89 88 92 94 94 94 89 91 90 86 81 82 89 91 94 91 88 89 90 94 94 93 93 93 95 93 91 82 89 93 95 94 93 94 92 89
62 67 78 85 92 92 88 91 91 91 93 95 94 94 96 95 94 88 85 89 89 89 88 91 89 89 92 94 95 94 94 91 90 88 86 85 89 90 94 92 94 94 90

GFSSE_sfc_rhum_123.txt.gz
RH
64 70 78 70 73 73 77 79 77 76 73 75 75 75 75 75 76 77 76 74 74 76 74 73 74 74 73 75 75 73 75 76 74 73 72 73 74 75 75 72 65 50 74
58 71 73 72 71 72 76 76 75 74 73 74 77 76 75 76 76 76 74 74 75 74 73 72 73 74 74 74 77 74 75 77 75 73 71 72 74 74 72 71 67 62 72
53 68 65 72 72 77 79 76 76 76 73 75 75 75 75 76 76 74 74 72 72 73 74 74 73 75 73 74 72 73 75 76 76 75 70 55 59 74 74 72 73 74 75
51 55 61 80 79 78 78 75 75 73 74 76 75 76 76 75 70 71 74 72 73 73 74 72 69 68 70 74 74 73 74 76 77 70 52 47 49 74 74 76 77 76 75
58 57 61 78 79 76 77 74 74 73 75 76 76 75 75 70 76 74 70 70 74 73 73 71 69 71 69 70 73 74 74 78 77 62 56 60 55 62 74 72 71 77 75
57 60 66 75 77 75 75 72 75 74 76 75 75 72 69 73 72 71 70 68 70 71 72 70 72 72 70 71 72 74 76 78 68 58 59 63 56 73 71 71 74 76 75
58 54 55 76 76 76 76 74 75 75 74 73 73 72 72 72 71 71 71 70 67 68 68 68 70 71 70 69 70 71 73 75 51 54 57 57 57 72 68 69 69 70 70
54 55 58 72 73 75 75 75 75 73 75 75 75 73 73 71 71 70 71 69 65 66 67 67 68 69 70 69 69 67 68 62 55 61 62 52 76 71 67 68 69 69 70
50 56 59 54 67 73 75 76 74 75 75 74 72 72 73 70 70 71 68 66 64 63 64 65 68 68 68 69 69 68 67 75 50 53 48 48 75 65 64 66 68 68 69
57 56 62 64 63 60 70 76 75 75 75 74 72 72 74 72 71 73 74 71 65 62 61 63 66 68 68 68 70 70 70 67 45 42 42 47 71 62 62 64 67 69 72
63 65 71 65 73 73 72 68 72 74 74 73 73 82 76 62 58 55 70 70 69 68 65 63 64 69 72 71 69 68 69 47 44 40 38 74 71 64 62 64 68 71 73
64 66 67 64 60 70 74 75 74 70 71 71 70 73 67 68 70 64 69 72 73 73 69 61 66 63 59 44 47 64 47 53 49 42 36 71 73 70 66 68 70 71 72
55 61 65 69 75 71 76 70 66 64 62 66 72 69 70 64 60 54 53 51 52 61 46 47 47 44 50 49 48 45 49 48 41 36 47 70 75 73 69 68 70 71 73
63 62 63 66 72 71 65 66 63 59 59 58 65 73 69 56 60 65 56 56 58 54 61 59 50 58 57 57 49 49 46 39 35 34 40 71 76 74 70 70 70 72 74
60 62 63 68 75 74 75 70 60 61 52 55 61 66 60 56 60 56 62 56 60 59 55 58 58 54 57 50 45 49 46 44 39 32 33 65 74 75 70 68 70 73 74
59 61 61 65 70 71 69 73 68 61 58 61 61 65 68 56 60 57 62 57 61 61 58 58 60 56 52 43 46 44 46 43 45 41 33 37 65 73 72 70 72 74 74
56 59 62 62 63 70 73 70 69 72 63 59 58 66 66 68 68 72 63 60 59 64 68 61 58 56 45 40 48 42 40 42 36 40 35 34 38 63 67 70 75 77 75
53 64 63 51 56 63 68 71 63 67 61 60 58 66 64 68 71 71 62 59 62 64 59 57 52 48 47 44 46 44 40 39 43 42 42 42 40 37 56 72 77 81 78
56 61 64 62 62 66 72 67 69 68 61 59 58 61 70 69 68 67 62 59 68 60 60 54 54 50 48 46 41 46 47 45 45 37 49 51 46 46 44 65 82 84 80
55 61 63 62 66 71 67 72 64 61 59 56 55 58 68 66 67 70 59 62 66 57 57 55 63 57 52 50 37 45 46 45 46 46 46 43 47 51 50 61 56 52 85
56 61 65 68 72 70 68 65 63 59 63 58 57 66 70 70 70 71 57 62 66 61 68 67 58 64 53 57 50 50 51 49 49 49 46 44 48 48 50 50 51 47 44
56 61 67 70 75 73 65 67 60 63 60 58 62 69 68 67 71 67 70 64 67 58 69 70 69 56 55 60 54 48 47 48 45 43 48 46 50 46 45 47 50 54 51
57 62 66 71 74 73 70 69 70 68 70 65 78 84 64 66 67 72 70 68 68 65 57 69 66 68 53 57 67 55 50 44 50 47 48 44 52 46 48 51 49 51 54
54 57 63 69 73 71 75 71 74 60 63 70 86 74 71 68 66 67 69 70 73 64 71 67 61 66 66 56 55 53 65 59 49 46 46 46 48 46 46 46 46 49 55
51 55 58 68 73 71 75 78 77 70 61 67 63 77 82 78 68 63 72 70 73 61 71 71 69 73 59 58 55 55 61 53 61 48 41 38 42 42 46 48 47 47 54
49 52 56 68 75 73 74 75 77 74 76 66 69 63 63 64 61 70 66 72 79 68 72 64 72 70 70 68 59 60 52 50 50 48 48 52 52 47 48 50 53 51 50